Tracking 28125 objects as of 4-Oct-2023
HD Live streaming from Space Station
objects crossing your sky now

THORAD AGENA D DEB

Track THORAD AGENA D DEB now!
10-day predictions


NORAD ID: 42523
Int'l Code: 1970-025SD
Perigee: 971.3 km
Apogee: 1,009.1 km
Inclination: 100.0 °
Period: 104.8 minutes
Semi major axis: 7361 km
RCS: Unknown
Launch date: April 8, 1970
Source: United States (US)
Launch site: AIR FORCE WESTERN TEST RANGE (AFWTR)

Note: This is SATELLITE DEBRIS
Your satellite tracking list
Your tracking list is empty




NASA's NSSDC Master Catalog

Two Line Element Set (TLE):
1 42523U 70025SD  23269.66126164  .00000775  00000-0  86650-3 0  9991
2 42523 100.0045 328.2278 0025698 295.1989 215.3680 13.74611238493606
Source of the keplerian elements: AFSPC